EHI
0 0 0 0 0 0 0 0 0 0 0 0 0 0 0 0 0 0 0 0 0 0 0 0 0 0 0 0 0 0 0 0 0 0 0 0 0 0 0 0 0 0 0
0 0 0 0 0 0 0 0 0 0 0 0 0 0 0 0 0 0 0 0 0 0 0 0 0 0 0 0 0 0 0 0 0 0 0 0 0 0 0 0 0 0 0
0 0 0 0 0 0 0 0 0 0 0 0 0 0 0 0 0 0 0 0 0 0 0 0 0 0 0 0 0 0 0 0 0 0 0 0 0 0 0 0 0 0 0
0 0 0 0 0 0 0 0 0 0 0 0 0 0 0 0 0 0 0 0 0 0 0 0 0 0 0 0 0 0 0 0 0 0 0 0 0 0 0 0 0 0 0
0 0 0 0 0 0 0 0 0 0 0 0 0 0 0 0 0 0 0 0 0 0 0 0 0 0 0 0 0 0 0 0 0 0 0 0 0 0 0 0 0 0 0
0 0 0 0 0 0 0 0 0 0 0 0 0 0 0 0 0 0 0 0 0 0 0 0 0 0 0 0 0 0 0 0 0 0 0 0 0 0 0 0 0 0 0
0 0 0 0 0 0 0 0 0 0 0 0 0 0 0 0 0 0 0 0 0 0 0 0 0 0 0 0 0 0 0 0 0 0 0 0 0 0 0 0 0 0 0
0 0 0 0 0 0 0 0 0 0 0 0 0 0 0 0 0 0 0 0 0 0 0 0 0 0 0 0 0 0 0 0 0 0 0 0 0 0 0 0 0 0 0
0 0 0 0 0 0 0 0 0 0 0 0 0 0 0 0 0 0 0 0 0 0 0 0 0 0 0 0 0 0 0 0 0 0 0 0 0 0 0 0 0 0 0
0 0 0 0 0 0 0 0 0 0 0 0 0 0 0 0 0 0 0 0 0 0 0 0 0 0 0 0 0 0 0 0 0 0 0 0 0 0 0 0 0 0 0
0 0 0 0 0 0 0 0 0 0 0 0 0 0 0 0 0 0 0 0 0 0 0 0 0 0 0 0 0 0 0 0 0 0 0 0 0 0 0 0 0 0 0
0 0 0 0 0 0 0 0 0 0 0 0 0 0 0 0 0 0 0 0 0 0 0 0 0 0 0 0 0 0 0 0 0 0 0 0 0 0 0 0 0 0 0
0 0 0 0 0 0 0 0 0 0 0 0 0 0 0 0 0 0 0 0 0 0 0 0 0 0 0 0 0 0 0 0 0 0 0 0 0 0 0 0 0 0 0
0 0 0 0 0 0 0 0 0 0 0 0 0 0 0 0 0 0 0 0 0 0 0 0 0 0 0 0 0 0 0 0 0 0 0 0 0 0 0 0 0 0 0
0 0 0 0 0 0 0 0 0 0 0 0 0 0 0 0 0 0 0 0 0 0 0 0 0 0 0 0 0 0 0 0 0 0 0 0 0 0 0 0 0 0 0
0 0 0 0 0 0 0 0 0 0 0 0 0 0 0 0 0 0 0 0 0 0 0 0 0 0 0 0 0 0 0 0 0 0 0 0 0 0 0 0 0 0 0
0 0 0 0 0 0 0 0 0 0 0 0 0 0 0 0 0 0 0 0 0 0 0 0 0 0 0 0 0 0 0 0 0 0 0 0 0 0 0 0 0 0 0
0 0 0 0 0 0 0 0 0 0 0 0 0 0 0 0 0 0 0 0 0 0 0 0 0 0 0 0 0 0 0 0 0 0 0 0 0 0 0 0 0 0 0
0 0 0 0 0 0 0 0 0 0 0 0 0 0 0 0 0 0 0 0 0 0 0 0 0 0 0 0 0 0 0 0 0 0 0 0 0 0 0 0 0 0 0
0 0 0 0 0 0 0 0 0 0 0 0 0 0 0 0 0 0 0 0 0 0 0 0 0 0 0 0 0 0 0 0 0 0 0 0 0 0 0 0 0 0 0
0 0 0 0 0 0 0 0 0 0 0 0 0 0 0 0 0 0 0 0 0 0 0 0 0 0 0 0 0 0 0 0 0 0 0 0 0 0 0 0 0 0 0
0 0 0 0 0 0 0 0 0 0 0 0 0 0 0 0 0 0 0 0 0 0 0 0 0 0 0 0 0 0 0 0 0 0 0 0 0 0 0 0 0 0 0
0 0 0 0 0 0 0 0 0 0 0 0 0 0 0 0 0 0 0 0 0 0 0 0 0 0 0 0 0 0 0 0 0 0 0 0 0 0 0 0 0 0 0
0 0 0 0 0 0 0 0 0 0 0 0 0 0 0 0 0 0 0 0 0 0 0 0 0 0 0 0 0 0 0 0 0 0 0 0 0 0 0 0 0 0 0
0 0 0 0 0 0 0 0 0 0 0 0 0 0 0 0 0 0 0 0 0 0 0 0 0 0 0 0 0 0 0 0 0 0 0 0 0 0 0 0 0 0 0
0 0 0 0 0 0 0 0 0 0 0 0 0 0 0 0 0 0 0 0 0 0 0 0 0 0 0 0 0 0 0 0 0 0 0 0 0 0 0 0 0 0 0
Wind_Speed
4 3 3 3 2 2 2 2 2 2 2 1 1 1 1 0 1 1 1 1 2 2 2 2 3 2 2 2 2 2 2 3 6 6 4 4 4 5 4 3 4 4 5
3 3 3 3 3 3 2 2 2 2 2 2 2 1 1 1 1 2 2 2 2 3 3 3 3 3 3 3 2 3 3 3 4 7 5 4 5 5 5 4 4 4 5
3 3 3 3 3 3 3 2 2 2 2 2 2 2 2 2 2 2 2 3 3 3 3 4 4 4 4 3 3 3 3 4 4 5 6 4 4 4 5 5 5 4 5
3 3 3 3 3 3 3 3 2 2 2 2 2 2 2 3 3 3 2 2 3 3 4 4 4 5 5 5 4 4 4 4 4 5 5 5 4 4 4 4 5 4 5
3 3 3 2 2 2 3 3 2 2 3 2 2 2 2 3 3 3 3 3 3 4 4 4 5 6 7 7 6 5 5 5 4 5 6 5 5 4 5 4 5 5 5
3 2 2 2 2 3 3 3 2 2 2 2 2 3 3 3 5 6 5 4 4 4 5 5 5 6 8 10 11 11 9 7 6 6 6 7 7 6 5 5 5 5 6
2 2 2 2 3 3 2 2 3 3 2 2 3 3 4 5 7 7 7 5 5 5 5 5 5 6 8 5 8 10 10 12 12 9 9 9 8 7 6 7 7 7 8
2 2 2 2 2 2 2 3 3 2 3 3 3 4 4 5 7 8 8 5 5 6 6 6 7 7 6 6 6 7 7 8 9 8 9 9 9 7 7 8 8 8 7
2 3 3 3 3 3 3 3 3 2 3 3 4 4 4 5 7 8 7 4 5 6 6 6 7 7 10 11 8 7 8 7 8 11 12 12 14 14 11 6 6 6 8
3 3 3 3 3 3 4 3 2 3 3 3 4 4 4 5 7 8 8 4 5 5 5 6 9 10 11 12 7 6 8 8 7 7 8 9 10 11 13 9 7 7 7
2 2 2 2 3 3 3 3 2 3 3 3 4 4 5 6 7 9 9 4 5 5 5 5 5 10 12 12 10 7 10 9 6 6 6 6 6 6 6 7 7 7 8
2 2 2 2 2 2 2 2 3 3 3 3 3 4 4 5 6 7 10 9 8 6 6 5 6 11 12 12 10 10 12 10 5 5 6 6 6 6 5 6 6 7 8
1 2 2 2 2 2 3 3 2 2 3 3 3 3 3 3 4 8 10 10 10 7 6 9 10 11 11 9 10 11 9 6 5 6 7 7 6 6 5 5 6 6 7
2 2 2 2 2 2 2 3 3 3 3 3 3 4 4 4 4 4 4 5 8 7 6 8 10 10 8 8 8 7 5 5 6 6 6 6 5 5 5 5 5 5 6
2 2 2 2 2 2 2 2 3 4 4 4 4 4 4 4 6 8 6 5 4 5 5 4 4 4 4 4 4 4 4 5 6 6 6 6 6 6 6 5 5 5 6
2 1 1 1 1 1 1 2 3 4 5 7 7 7 6 8 10 10 10 10 10 8 5 4 4 4 5 5 5 5 4 5 5 6 6 6 6 6 6 5 5 6 7
2 2 1 1 2 2 2 2 2 3 4 6 7 7 8 9 9 9 10 10 8 6 4 4 4 5 5 5 5 5 5 5 5 5 6 6 6 6 6 6 6 6 7
1 2 2 2 2 2 2 2 2 2 3 3 5 7 8 8 9 9 8 7 4 4 3 4 4 4 4 5 5 5 5 5 5 5 6 6 6 6 7 7 6 7 7
1 1 1 2 2 2 2 2 2 3 3 3 4 5 6 7 7 7 6 3 4 4 4 4 4 5 5 5 5 5 6 6 6 6 6 7 6 6 7 7 7 10 9
1 3 2 1 1 2 2 2 2 2 3 3 3 4 4 4 3 4 3 3 3 4 4 5 5 5 5 5 5 5 6 6 6 6 6 6 6 6 7 8 8 8 8
1 2 3 2 1 2 2 2 2 2 3 3 4 5 6 4 3 3 3 3 4 4 5 5 5 5 5 5 5 6 7 6 6 6 6 6 6 7 7 7 8 8 8
1 1 1 2 2 2 2 2 2 2 3 4 4 4 7 4 3 3 3 4 4 4 4 4 5 5 5 5 5 6 6 7 6 6 6 6 6 7 7 7 8 8 8
1 1 2 2 2 3 3 2 2 2 3 3 3 3 3 3 3 4 4 4 4 4 4 4 5 5 5 5 5 6 6 7 7 7 7 7 7 7 7 7 9 9 8
1 1 2 2 2 2 2 2 2 3 3 3 3 3 3 3 4 4 4 4 4 5 5 5 5 7 8 7 6 6 6 7 7 7 9 8 8 7 7 8 8 9 8
1 2 2 2 2 2 3 3 3 3 3 3 3 4 4 4 4 5 4 4 5 6 6 6 5 6 8 9 8 7 10 14 12 8 7 7 8 8 8 8 8 8 8
1 2 2 2 2 3 3 3 3 3 4 4 4 4 4 5 5 5 5 5 5 6 6 6 7 8 9 8 9 11 14 14 14 14 8 6 7 7 7 7 8 8 8
Wind_Direction
170 172 168 169 164 158 166 175 171 166 163 181 190 216 239 269 287 254 250 239 236 251 252 242 253 254 256 257 251 252 252 248 263 278 278 283 283 287 285 272 274 272 282
175 168 170 165 156 165 177 184 177 181 186 195 201 216 239 258 252 242 256 264 247 246 250 247 256 259 256 251 245 251 252 248 256 276 285 283 277 280 279 273 281 281 276
167 166 167 169 172 180 185 183 187 193 202 204 206 218 235 249 253 253 247 256 259 258 253 247 250 247 254 255 253 257 261 265 256 264 278 280 280 283 290 282 277 273 279
165 170 182 189 191 192 187 183 194 198 204 211 222 229 239 251 255 256 259 261 260 264 263 258 254 246 249 247 252 252 257 262 260 261 270 276 278 280 281 278 282 273 276
176 184 200 197 188 188 191 194 198 207 219 222 232 243 246 252 249 249 251 254 254 260 262 260 261 260 258 257 258 250 248 254 259 262 267 272 271 278 277 273 273 281 271
187 197 195 186 186 193 199 198 200 209 217 220 231 237 244 256 261 262 263 256 255 255 261 264 264 261 260 265 267 265 256 252 254 260 266 262 268 266 273 268 272 278 278
196 202 195 190 197 202 205 204 211 217 222 229 236 236 245 252 257 261 265 265 256 254 255 258 264 264 269 263 268 273 269 263 258 256 258 260 265 262 267 266 261 261 265
196 204 208 202 208 208 208 216 223 225 226 233 243 242 248 255 262 265 268 264 257 255 253 252 254 260 261 263 264 266 265 265 262 258 255 260 262 261 258 260 261 267 271
211 215 213 209 212 217 221 225 230 231 243 243 248 244 247 260 262 266 268 256 255 256 254 253 252 254 259 265 265 265 271 272 273 269 266 268 268 268 265 268 265 264 268
229 230 220 213 217 227 232 235 239 238 247 251 260 255 251 256 259 265 266 253 255 261 262 260 258 260 263 266 260 256 264 270 275 281 279 277 274 268 264 254 251 257 265
240 237 231 225 227 233 237 239 229 243 250 251 260 265 259 258 262 264 267 260 251 260 265 264 261 266 268 270 269 260 264 274 275 275 276 276 274 270 264 254 246 246 252
228 229 237 236 236 236 225 236 235 230 238 248 256 268 264 263 264 265 268 269 267 261 263 265 263 268 271 272 271 268 274 279 273 273 273 271 271 270 270 267 257 251 251
228 230 236 244 238 230 222 226 230 227 230 245 249 261 269 270 265 270 274 275 275 273 268 269 273 275 276 273 271 273 274 268 262 264 266 269 272 273 275 275 270 263 263
227 239 233 227 235 236 235 228 225 227 232 241 249 259 267 272 272 268 266 274 274 274 271 272 276 277 277 276 275 269 261 257 259 262 268 272 275 273 272 272 273 269 269
223 240 242 238 231 245 253 246 247 244 239 246 250 251 258 266 268 275 279 276 269 265 269 264 261 264 265 267 268 265 261 261 262 262 266 270 271 272 272 271 270 270 265
220 234 232 232 237 238 251 289 290 275 274 273 270 269 268 269 276 278 280 284 285 284 281 263 259 259 260 263 267 270 268 263 262 264 265 266 269 270 272 271 267 264 265
217 235 237 231 232 237 240 246 279 299 290 282 279 280 280 281 282 285 288 290 288 291 283 268 266 262 261 263 265 267 269 268 266 264 264 265 267 269 269 269 266 265 267
243 252 257 239 238 239 240 243 247 262 285 292 289 286 287 288 291 293 295 301 289 283 268 267 270 267 265 265 265 266 269 271 269 265 264 264 264 265 266 266 265 263 267
276 255 246 241 242 241 243 249 251 256 265 281 295 293 294 294 296 298 302 288 276 275 274 269 269 270 269 267 266 266 266 267 267 267 266 265 264 263 263 264 265 270 270
289 289 290 263 250 252 246 246 252 257 265 271 280 290 296 298 293 294 293 281 276 276 275 274 273 270 269 267 267 266 266 266 265 263 263 264 264 263 263 265 265 266 265
285 288 302 303 276 268 259 252 253 256 263 269 275 283 290 287 280 282 283 279 275 275 276 276 274 273 270 269 267 266 267 266 264 264 264 264 263 263 264 264 265 265 267
283 276 277 278 279 275 269 259 258 264 268 274 282 290 299 306 294 289 288 286 284 279 276 276 276 272 269 266 265 264 265 266 267 266 265 265 264 263 263 263 264 266 266
295 296 298 296 290 290 299 292 281 278 281 282 286 294 298 295 293 290 289 289 290 289 285 280 278 278 274 269 264 260 260 262 263 264 265 265 263 261 260 261 262 265 265
288 291 293 297 300 294 289 287 284 282 283 287 290 292 293 293 293 294 293 293 294 293 291 286 279 276 278 279 273 267 265 268 267 262 260 262 264 262 261 261 262 262 263
293 287 285 284 289 289 288 287 287 290 294 295 295 295 295 295 295 296 297 296 295 293 292 290 285 281 280 280 279 276 276 280 280 274 262 259 260 259 260 260 261 263 261
285 283 281 280 281 281 281 283 285 288 290 291 291 290 290 292 293 294 296 296 298 296 295 292 288 287 285 282 280 281 284 286 285 284 277 262 259 260 262 261 260 260 260